Year,Month,Day,Hour,Minute,Value (Times are PST for windgust in km/hr)
2018,04,16,00,00,30.60
2018,04,16,00,01,32.20
2018,04,16,00,02,32.20
2018,04,16,00,03,33.80
2018,04,16,00,04,32.20
2018,04,16,00,05,33.80
2018,04,16,00,06,32.20
2018,04,16,00,07,35.40
2018,04,16,00,08,32.20
2018,04,16,00,09,33.80
2018,04,16,00,10,33.80
2018,04,16,00,11,30.60
2018,04,16,00,12,32.20
2018,04,16,00,13,35.40
2018,04,16,00,14,33.80
2018,04,16,00,15,29.00
2018,04,16,00,16,33.80
2018,04,16,00,17,33.80
2018,04,16,00,18,30.60
2018,04,16,00,19,30.60
2018,04,16,00,20,33.80
2018,04,16,00,21,32.20
2018,04,16,00,22,32.20
2018,04,16,00,23,32.20
2018,04,16,00,24,30.60
2018,04,16,00,25,32.20
2018,04,16,00,26,29.00
2018,04,16,00,27,33.80
2018,04,16,00,28,33.80
2018,04,16,00,29,30.60
2018,04,16,00,30,33.80
2018,04,16,00,31,33.80
2018,04,16,00,32,30.60
2018,04,16,00,33,32.20
2018,04,16,00,34,29.00
2018,04,16,00,35,32.20
2018,04,16,00,36,29.00
2018,04,16,00,37,32.20
2018,04,16,00,38,32.20
2018,04,16,00,39,32.20
2018,04,16,00,40,30.60
2018,04,16,00,41,32.20
2018,04,16,00,42,32.20
2018,04,16,00,43,27.40
2018,04,16,00,44,30.60
2018,04,16,00,45,37.00
2018,04,16,00,46,33.80
2018,04,16,00,47,32.20
2018,04,16,00,48,32.20
2018,04,16,00,49,32.20
2018,04,16,00,50,32.20
2018,04,16,00,51,35.40
2018,04,16,00,52,32.20
2018,04,16,00,53,33.80
2018,04,16,00,54,33.80
2018,04,16,00,55,33.80
2018,04,16,00,56,37.00
2018,04,16,00,57,32.20
2018,04,16,00,58,37.00
2018,04,16,00,59,37.00
2018,04,16,01,00,32.20
2018,04,16,01,01,30.60
2018,04,16,01,02,30.60
2018,04,16,01,03,37.00
2018,04,16,01,04,35.40
2018,04,16,01,05,37.00
2018,04,16,01,06,38.60
2018,04,16,01,07,29.00
2018,04,16,01,08,33.80
2018,04,16,01,09,35.40
2018,04,16,01,10,38.60
2018,04,16,01,11,30.60
2018,04,16,01,12,33.80
2018,04,16,01,13,37.00
2018,04,16,01,14,37.00
2018,04,16,01,15,38.60
2018,04,16,01,16,38.60
2018,04,16,01,17,37.00
2018,04,16,01,18,37.00
2018,04,16,01,19,35.40
2018,04,16,01,20,35.40
2018,04,16,01,21,35.40
2018,04,16,01,22,37.00
2018,04,16,01,23,37.00
2018,04,16,01,24,37.00
2018,04,16,01,25,37.00
2018,04,16,01,26,37.00
2018,04,16,01,27,35.40
2018,04,16,01,28,33.80
2018,04,16,01,29,33.80
2018,04,16,01,30,35.40
2018,04,16,01,31,35.40
2018,04,16,01,32,35.40
2018,04,16,01,33,37.00
2018,04,16,01,34,33.80
2018,04,16,01,35,32.20
2018,04,16,01,36,38.60
2018,04,16,01,37,35.40
2018,04,16,01,38,35.40
2018,04,16,01,39,37.00
2018,04,16,01,40,37.00
2018,04,16,01,41,37.00
2018,04,16,01,42,38.60
2018,04,16,01,43,33.80
2018,04,16,01,44,35.40
2018,04,16,01,45,33.80
2018,04,16,01,46,32.20
2018,04,16,01,47,33.80
2018,04,16,01,48,38.60
2018,04,16,01,49,37.00
2018,04,16,01,50,37.00
2018,04,16,01,51,35.40
2018,04,16,01,52,32.20
2018,04,16,01,53,35.40
2018,04,16,01,54,30.60
2018,04,16,01,55,35.40
2018,04,16,01,56,33.80
2018,04,16,01,57,29.00
2018,04,16,01,58,30.60
2018,04,16,01,59,32.20
2018,04,16,02,00,37.00
2018,04,16,02,01,37.00
2018,04,16,02,02,33.80
2018,04,16,02,03,32.20
2018,04,16,02,04,32.20
2018,04,16,02,05,35.40
2018,04,16,02,06,33.80
2018,04,16,02,07,29.00
2018,04,16,02,08,38.60
2018,04,16,02,09,33.80
2018,04,16,02,10,35.40
2018,04,16,02,11,29.00
2018,04,16,02,12,35.40
2018,04,16,02,13,38.60
2018,04,16,02,14,32.20
2018,04,16,02,15,33.80
2018,04,16,02,16,33.80
2018,04,16,02,17,32.20
2018,04,16,02,18,32.20
2018,04,16,02,19,37.00
2018,04,16,02,20,38.60
2018,04,16,02,21,32.20
2018,04,16,02,22,32.20
2018,04,16,02,23,33.80
2018,04,16,02,24,35.40
2018,04,16,02,25,35.40
2018,04,16,02,26,35.40
2018,04,16,02,27,37.00
2018,04,16,02,28,32.20
2018,04,16,02,29,35.40
2018,04,16,02,30,32.20
2018,04,16,02,31,35.40
2018,04,16,02,32,37.00
2018,04,16,02,33,33.80
2018,04,16,02,34,30.60
2018,04,16,02,35,29.00
2018,04,16,02,36,33.80
2018,04,16,02,37,27.40
2018,04,16,02,38,30.60
2018,04,16,02,39,32.20
2018,04,16,02,40,30.60
2018,04,16,02,41,30.60
2018,04,16,02,42,30.60
2018,04,16,02,43,32.20
2018,04,16,02,44,29.00
2018,04,16,02,45,29.00
2018,04,16,02,46,33.80
2018,04,16,02,47,29.00
2018,04,16,02,48,29.00
2018,04,16,02,49,30.60
2018,04,16,02,50,30.60
2018,04,16,02,51,32.20
2018,04,16,02,52,33.80
2018,04,16,02,53,32.20
2018,04,16,02,54,29.00
2018,04,16,02,55,25.70
2018,04,16,02,56,37.00
2018,04,16,02,57,32.20
2018,04,16,02,58,29.00
2018,04,16,02,59,25.70
2018,04,16,03,00,25.70
2018,04,16,03,01,32.20
2018,04,16,03,02,27.40
2018,04,16,03,03,33.80
2018,04,16,03,04,33.80
2018,04,16,03,05,30.60
2018,04,16,03,06,29.00
2018,04,16,03,07,32.20
2018,04,16,03,08,33.80
2018,04,16,03,09,29.00
2018,04,16,03,10,30.60
2018,04,16,03,11,32.20
2018,04,16,03,12,29.00
2018,04,16,03,13,30.60
2018,04,16,03,14,27.40
2018,04,16,03,15,30.60
2018,04,16,03,16,32.20
2018,04,16,03,17,32.20
2018,04,16,03,18,32.20
2018,04,16,03,19,33.80
2018,04,16,03,20,29.00
2018,04,16,03,21,27.40
2018,04,16,03,22,30.60
2018,04,16,03,23,27.40
2018,04,16,03,24,25.70
2018,04,16,03,25,30.60
2018,04,16,03,26,27.40
2018,04,16,03,27,27.40
2018,04,16,03,28,27.40
2018,04,16,03,29,29.00
2018,04,16,03,30,25.70
2018,04,16,03,31,25.70
2018,04,16,03,32,24.20
2018,04,16,03,33,29.00
2018,04,16,03,34,27.40
2018,04,16,03,35,29.00
2018,04,16,03,36,27.40
2018,04,16,03,37,27.40
2018,04,16,03,38,29.00
2018,04,16,03,39,29.00
2018,04,16,03,40,24.20
2018,04,16,03,41,27.40
2018,04,16,03,42,24.20
2018,04,16,03,43,25.70
2018,04,16,03,44,27.40
2018,04,16,03,45,27.40
2018,04,16,03,46,25.70
2018,04,16,03,47,25.70
2018,04,16,03,48,24.20
2018,04,16,03,49,24.20
2018,04,16,03,50,24.20
2018,04,16,03,51,24.20
2018,04,16,03,52,24.20
2018,04,16,03,53,24.20
2018,04,16,03,54,24.20
2018,04,16,03,55,24.20
2018,04,16,03,56,22.50
2018,04,16,03,57,22.50
2018,04,16,03,58,22.50
2018,04,16,03,59,20.90
2018,04,16,04,00,20.90
2018,04,16,04,01,20.90
2018,04,16,04,02,20.90
2018,04,16,04,03,24.20
2018,04,16,04,04,22.50
2018,04,16,04,05,22.50
2018,04,16,04,06,22.50
2018,04,16,04,07,20.90
2018,04,16,04,08,19.30
2018,04,16,04,09,17.70
2018,04,16,04,10,22.50
2018,04,16,04,11,22.50
2018,04,16,04,12,22.50
2018,04,16,04,13,20.90
2018,04,16,04,14,20.90
2018,04,16,04,15,19.30
2018,04,16,04,16,17.70
2018,04,16,04,17,19.30
2018,04,16,04,18,20.90
2018,04,16,04,19,19.30
2018,04,16,04,20,19.30
2018,04,16,04,21,19.30
2018,04,16,04,22,19.30
2018,04,16,04,23,19.30
2018,04,16,04,24,20.90
2018,04,16,04,25,20.90
2018,04,16,04,26,20.90
2018,04,16,04,27,20.90
2018,04,16,04,28,20.90
2018,04,16,04,29,19.30
2018,04,16,04,30,20.90
2018,04,16,04,31,20.90
2018,04,16,04,32,20.90
2018,04,16,04,33,20.90
2018,04,16,04,34,19.30
2018,04,16,04,35,20.90
2018,04,16,04,36,22.50
2018,04,16,04,37,20.90
2018,04,16,04,38,20.90
2018,04,16,04,39,19.30
2018,04,16,04,40,20.90
2018,04,16,04,41,20.90
2018,04,16,04,42,19.30
2018,04,16,04,43,19.30
2018,04,16,04,44,20.90
2018,04,16,04,45,20.90
2018,04,16,04,46,20.90
2018,04,16,04,47,20.90
2018,04,16,04,48,20.90
2018,04,16,04,49,20.90
2018,04,16,04,50,20.90
2018,04,16,04,51,20.90
2018,04,16,04,52,19.30
2018,04,16,04,53,20.90
2018,04,16,04,54,17.70
2018,04,16,04,55,19.30
2018,04,16,04,56,19.30
2018,04,16,04,57,22.50
2018,04,16,04,58,20.90
2018,04,16,04,59,20.90
2018,04,16,05,00,20.90
2018,04,16,05,01,20.90
2018,04,16,05,02,19.30
2018,04,16,05,03,19.30
2018,04,16,05,04,20.90
2018,04,16,05,05,19.30
2018,04,16,05,06,20.90
2018,04,16,05,07,19.30
2018,04,16,05,08,20.90
2018,04,16,05,09,22.50
2018,04,16,05,10,19.30
2018,04,16,05,11,20.90
2018,04,16,05,12,17.70
2018,04,16,05,13,19.30
2018,04,16,05,14,19.30
2018,04,16,05,15,16.10
2018,04,16,05,16,14.50
2018,04,16,05,17,14.50
2018,04,16,05,18,17.70
2018,04,16,05,19,19.30
2018,04,16,05,20,19.30
2018,04,16,05,21,17.70
2018,04,16,05,22,19.30
2018,04,16,05,23,19.30
2018,04,16,05,24,19.30
2018,04,16,05,25,17.70
2018,04,16,05,26,19.30
2018,04,16,05,27,17.70
2018,04,16,05,28,17.70
2018,04,16,05,29,19.30
2018,04,16,05,30,19.30
2018,04,16,05,31,19.30
2018,04,16,05,32,17.70
2018,04,16,05,33,19.30
2018,04,16,05,34,19.30
2018,04,16,05,35,19.30
2018,04,16,05,36,20.90
2018,04,16,05,37,19.30
2018,04,16,05,38,20.90
2018,04,16,05,39,19.30
2018,04,16,05,40,19.30
2018,04,16,05,41,17.70
2018,04,16,05,42,24.20
2018,04,16,05,43,20.90
2018,04,16,05,44,19.30
2018,04,16,05,45,19.30
2018,04,16,05,46,17.70
2018,04,16,05,47,19.30
2018,04,16,05,48,17.70
2018,04,16,05,49,19.30
2018,04,16,05,50,17.70
2018,04,16,05,51,16.10
2018,04,16,05,52,16.10
2018,04,16,05,53,17.70
2018,04,16,05,54,17.70
2018,04,16,05,55,16.10
2018,04,16,05,56,14.50
2018,04,16,05,57,16.10
2018,04,16,05,58,17.70
2018,04,16,05,59,17.70
2018,04,16,06,00,17.70
2018,04,16,06,01,17.70
2018,04,16,06,02,16.10
2018,04,16,06,03,14.50
2018,04,16,06,04,16.10
2018,04,16,06,05,16.10
2018,04,16,06,06,14.50
2018,04,16,06,07,12.90
2018,04,16,06,08,17.70
2018,04,16,06,09,16.10
2018,04,16,06,10,14.50
2018,04,16,06,11,12.90
2018,04,16,06,12,12.90
2018,04,16,06,13,12.90
2018,04,16,06,14,12.90
2018,04,16,06,15,14.50
2018,04,16,06,16,16.10
2018,04,16,06,17,17.70
2018,04,16,06,18,16.10
2018,04,16,06,19,14.50
2018,04,16,06,20,14.50
2018,04,16,06,21,16.10
2018,04,16,06,22,12.90
2018,04,16,06,23,12.90
2018,04,16,06,24,14.50
2018,04,16,06,25,12.90
2018,04,16,06,26,12.90
2018,04,16,06,27,12.90
2018,04,16,06,28,12.90
2018,04,16,06,29,12.90
2018,04,16,06,30,12.90
2018,04,16,06,31,14.50
2018,04,16,06,32,12.90
2018,04,16,06,33,14.50
2018,04,16,06,34,12.90
2018,04,16,06,35,14.50
2018,04,16,06,36,14.50
2018,04,16,06,37,11.30
2018,04,16,06,38,12.90
2018,04,16,06,39,14.50
2018,04,16,06,40,14.50
2018,04,16,06,41,17.70
2018,04,16,06,42,16.10
2018,04,16,06,43,14.50
2018,04,16,06,44,17.70
2018,04,16,06,45,14.50
2018,04,16,06,46,16.10
2018,04,16,06,47,14.50
2018,04,16,06,48,14.50
2018,04,16,06,49,14.50
2018,04,16,06,50,14.50
2018,04,16,06,51,19.30
2018,04,16,06,52,24.20
2018,04,16,06,53,20.90
2018,04,16,06,54,27.40
2018,04,16,06,55,29.00
2018,04,16,06,56,32.20
2018,04,16,06,57,32.20
2018,04,16,06,58,35.40
2018,04,16,06,59,33.80
2018,04,16,07,00,30.60
2018,04,16,07,01,29.00
2018,04,16,07,02,32.20
2018,04,16,07,03,30.60
2018,04,16,07,04,30.60
2018,04,16,07,05,30.60
2018,04,16,07,06,27.40
2018,04,16,07,07,30.60
2018,04,16,07,08,32.20
2018,04,16,07,09,30.60
2018,04,16,07,10,32.20
2018,04,16,07,11,30.60
2018,04,16,07,12,29.00
2018,04,16,07,13,30.60
2018,04,16,07,14,29.00
2018,04,16,07,15,32.20
2018,04,16,07,16,30.60
2018,04,16,07,17,33.80
2018,04,16,07,18,32.20
2018,04,16,07,19,30.60
2018,04,16,07,20,30.60
2018,04,16,07,21,32.20
2018,04,16,07,22,33.80
2018,04,16,07,23,33.80
2018,04,16,07,24,33.80
2018,04,16,07,25,30.60
2018,04,16,07,26,33.80
2018,04,16,07,27,32.20
2018,04,16,07,28,33.80
2018,04,16,07,29,38.60
2018,04,16,07,30,32.20
2018,04,16,07,31,33.80
2018,04,16,07,32,32.20
2018,04,16,07,33,37.00
2018,04,16,07,34,35.40
2018,04,16,07,35,33.80
2018,04,16,07,36,35.40
2018,04,16,07,37,33.80
2018,04,16,07,38,32.20
2018,04,16,07,39,35.40
2018,04,16,07,40,35.40
2018,04,16,07,41,33.80
2018,04,16,07,42,32.20
2018,04,16,07,43,33.80
2018,04,16,07,44,30.60
2018,04,16,07,45,33.80
2018,04,16,07,46,32.20
2018,04,16,07,47,30.60
2018,04,16,07,48,30.60
2018,04,16,07,49,29.00
2018,04,16,07,50,30.60
2018,04,16,07,51,30.60
2018,04,16,07,52,30.60
2018,04,16,07,53,30.60
2018,04,16,07,54,30.60
2018,04,16,07,55,30.60
2018,04,16,07,56,32.20
2018,04,16,07,57,30.60
2018,04,16,07,58,32.20
2018,04,16,07,59,32.20
2018,04,16,08,00,32.20
2018,04,16,08,01,35.40
2018,04,16,08,02,33.80
2018,04,16,08,03,29.00
2018,04,16,08,04,32.20
2018,04,16,08,05,32.20
2018,04,16,08,06,32.20
2018,04,16,08,07,29.00
2018,04,16,08,08,32.20
2018,04,16,08,09,33.80
2018,04,16,08,10,32.20
2018,04,16,08,11,32.20
2018,04,16,08,12,33.80
2018,04,16,08,13,33.80
2018,04,16,08,14,37.00
2018,04,16,08,15,33.80
2018,04,16,08,16,30.60
2018,04,16,08,17,35.40
2018,04,16,08,18,33.80
2018,04,16,08,19,38.60
2018,04,16,08,20,37.00
2018,04,16,08,21,33.80
2018,04,16,08,22,35.40
2018,04,16,08,23,35.40
2018,04,16,08,24,38.60
2018,04,16,08,25,37.00
2018,04,16,08,26,30.60
2018,04,16,08,27,32.20
2018,04,16,08,28,35.40
2018,04,16,08,29,32.20
2018,04,16,08,30,30.60
2018,04,16,08,31,32.20
2018,04,16,08,32,38.60
2018,04,16,08,33,35.40
2018,04,16,08,34,30.60
2018,04,16,08,35,27.40
2018,04,16,08,36,32.20
2018,04,16,08,37,33.80
2018,04,16,08,38,33.80
2018,04,16,08,39,30.60
2018,04,16,08,40,30.60
2018,04,16,08,41,33.80
2018,04,16,08,42,32.20
2018,04,16,08,43,35.40
2018,04,16,08,44,33.80
2018,04,16,08,45,35.40
2018,04,16,08,46,35.40
2018,04,16,08,47,33.80
2018,04,16,08,48,32.20
2018,04,16,08,49,35.40
2018,04,16,08,50,33.80
2018,04,16,08,51,37.00
2018,04,16,08,52,32.20
2018,04,16,08,53,33.80
2018,04,16,08,54,35.40
2018,04,16,08,55,38.60
2018,04,16,08,56,33.80
2018,04,16,08,57,40.20
2018,04,16,08,58,35.40
2018,04,16,08,59,33.80
2018,04,16,09,00,33.80
2018,04,16,09,01,33.80
2018,04,16,09,02,33.80
2018,04,16,09,03,37.00
2018,04,16,09,04,35.40
2018,04,16,09,05,37.00
2018,04,16,09,06,37.00
2018,04,16,09,07,33.80
2018,04,16,09,08,38.60
2018,04,16,09,09,43.50
2018,04,16,09,10,35.40
2018,04,16,09,11,35.40
2018,04,16,09,12,35.40
2018,04,16,09,13,38.60
2018,04,16,09,14,32.20
2018,04,16,09,15,35.40
2018,04,16,09,16,33.80
2018,04,16,09,17,29.00
2018,04,16,09,18,35.40
2018,04,16,09,19,35.40
2018,04,16,09,20,33.80
2018,04,16,09,21,32.20
2018,04,16,09,22,35.40
2018,04,16,09,23,35.40
2018,04,16,09,24,33.80
2018,04,16,09,25,35.40
2018,04,16,09,26,32.20
2018,04,16,09,27,33.80
2018,04,16,09,28,33.80
2018,04,16,09,29,30.60
2018,04,16,09,30,29.00
2018,04,16,09,31,32.20
2018,04,16,09,32,32.20
2018,04,16,09,33,33.80
2018,04,16,09,34,33.80
2018,04,16,09,35,33.80
2018,04,16,09,36,35.40
2018,04,16,09,37,41.80
2018,04,16,09,38,38.60
2018,04,16,09,39,37.00
2018,04,16,09,40,38.60
2018,04,16,09,41,33.80
2018,04,16,09,42,37.00
2018,04,16,09,43,30.60
2018,04,16,09,44,35.40
2018,04,16,09,45,37.00
2018,04,16,09,46,37.00
2018,04,16,09,47,40.20
2018,04,16,09,48,38.60
2018,04,16,09,49,40.20
2018,04,16,09,50,41.80
2018,04,16,09,51,37.00
2018,04,16,09,52,38.60
2018,04,16,09,53,35.40
2018,04,16,09,54,32.20
2018,04,16,09,55,30.60
2018,04,16,09,56,32.20
2018,04,16,09,57,32.20
2018,04,16,09,58,32.20
2018,04,16,09,59,29.00
2018,04,16,10,00,32.20
2018,04,16,10,01,30.60
2018,04,16,10,02,33.80
2018,04,16,10,03,32.20
2018,04,16,10,04,35.40
2018,04,16,10,05,35.40
2018,04,16,10,06,33.80
2018,04,16,10,07,29.00
2018,04,16,10,08,33.80
2018,04,16,10,09,40.20
2018,04,16,10,10,27.40
2018,04,16,10,11,25.70
2018,04,16,10,12,27.40
2018,04,16,10,13,24.20
2018,04,16,10,14,29.00
2018,04,16,10,15,29.00
2018,04,16,10,16,27.40
2018,04,16,10,17,27.40
2018,04,16,10,18,27.40
2018,04,16,10,19,25.70
2018,04,16,10,20,29.00
2018,04,16,10,21,25.70
2018,04,16,10,22,30.60
2018,04,16,10,23,27.40
2018,04,16,10,24,22.50
2018,04,16,10,25,27.40
2018,04,16,10,26,27.40
2018,04,16,10,27,27.40
2018,04,16,10,28,24.20
2018,04,16,10,29,25.70
2018,04,16,10,30,25.70
2018,04,16,10,31,24.20
2018,04,16,10,32,32.20
2018,04,16,10,33,27.40
2018,04,16,10,34,27.40
2018,04,16,10,35,30.60
2018,04,16,10,36,24.20
2018,04,16,10,37,24.20
2018,04,16,10,38,25.70
2018,04,16,10,39,27.40
2018,04,16,10,40,24.20
2018,04,16,10,41,24.20
2018,04,16,10,42,27.40
2018,04,16,10,43,24.20
2018,04,16,10,44,29.00
2018,04,16,10,45,30.60
2018,04,16,10,46,32.20
2018,04,16,10,47,30.60
2018,04,16,10,48,32.20
2018,04,16,10,49,33.80
2018,04,16,10,50,32.20
2018,04,16,10,51,27.40
2018,04,16,10,52,27.40
2018,04,16,10,53,27.40
2018,04,16,10,54,32.20
2018,04,16,10,55,29.00
2018,04,16,10,56,29.00
2018,04,16,10,57,32.20
2018,04,16,10,58,29.00
2018,04,16,10,59,30.60
2018,04,16,11,00,27.40
2018,04,16,11,01,30.60
2018,04,16,11,02,27.40
2018,04,16,11,03,25.70
2018,04,16,11,04,25.70
2018,04,16,11,05,24.20
2018,04,16,11,06,20.90
2018,04,16,11,07,22.50
2018,04,16,11,08,20.90
2018,04,16,11,09,20.90
2018,04,16,11,10,24.20
2018,04,16,11,11,20.90
2018,04,16,11,12,19.30
2018,04,16,11,13,22.50
2018,04,16,11,14,19.30
2018,04,16,11,15,22.50
2018,04,16,11,16,19.30
2018,04,16,11,17,20.90
2018,04,16,11,18,20.90
2018,04,16,11,19,20.90
2018,04,16,11,20,20.90
2018,04,16,11,21,20.90
2018,04,16,11,22,20.90
2018,04,16,11,23,22.50
2018,04,16,11,24,22.50
2018,04,16,11,25,19.30
2018,04,16,11,26,20.90
2018,04,16,11,27,19.30
2018,04,16,11,28,19.30
2018,04,16,11,29,19.30
2018,04,16,11,30,20.90
2018,04,16,11,31,20.90
2018,04,16,11,32,17.70
2018,04,16,11,33,22.50
2018,04,16,11,34,20.90
2018,04,16,11,35,20.90
2018,04,16,11,36,20.90
2018,04,16,11,37,22.50
2018,04,16,11,38,19.30
2018,04,16,11,39,17.70
2018,04,16,11,40,17.70
2018,04,16,11,41,19.30
2018,04,16,11,42,19.30
2018,04,16,11,43,20.90
2018,04,16,11,44,20.90
2018,04,16,11,45,17.70
2018,04,16,11,46,19.30
2018,04,16,11,47,20.90
2018,04,16,11,48,19.30
2018,04,16,11,49,19.30
2018,04,16,11,50,19.30
2018,04,16,11,51,16.10
2018,04,16,11,52,16.10
2018,04,16,11,53,16.10
2018,04,16,11,54,16.10
2018,04,16,11,55,19.30
2018,04,16,11,56,19.30
2018,04,16,11,57,16.10
2018,04,16,11,58,17.70
2018,04,16,11,59,16.10
2018,04,16,12,00,14.50
2018,04,16,12,01,17.70
2018,04,16,12,02,14.50
2018,04,16,12,03,16.10
2018,04,16,12,04,14.50
2018,04,16,12,05,16.10
2018,04,16,12,06,14.50
2018,04,16,12,07,16.10
2018,04,16,12,08,16.10
2018,04,16,12,09,17.70
2018,04,16,12,10,16.10
2018,04,16,12,11,17.70
2018,04,16,12,12,16.10
2018,04,16,12,13,16.10
2018,04,16,12,14,17.70
2018,04,16,12,15,14.50
2018,04,16,12,16,16.10
2018,04,16,12,17,17.70
2018,04,16,12,18,16.10
2018,04,16,12,19,16.10
2018,04,16,12,20,16.10
2018,04,16,12,21,17.70
2018,04,16,12,22,17.70
2018,04,16,12,23,17.70
2018,04,16,12,24,17.70
2018,04,16,12,25,14.50
2018,04,16,12,26,16.10
2018,04,16,12,27,16.10
2018,04,16,12,28,17.70
2018,04,16,12,29,17.70
2018,04,16,12,30,17.70
2018,04,16,12,31,17.70
2018,04,16,12,32,16.10
2018,04,16,12,33,16.10
2018,04,16,12,34,17.70
2018,04,16,12,35,16.10
2018,04,16,12,36,16.10
2018,04,16,12,37,17.70
2018,04,16,12,38,16.10
2018,04,16,12,39,16.10
2018,04,16,12,40,19.30
2018,04,16,12,41,16.10
2018,04,16,12,42,17.70
2018,04,16,12,43,16.10
2018,04,16,12,44,16.10
2018,04,16,12,45,16.10
2018,04,16,12,46,14.50
2018,04,16,12,47,16.10
2018,04,16,12,48,16.10
2018,04,16,12,49,17.70
2018,04,16,12,50,17.70
2018,04,16,12,51,16.10
2018,04,16,12,52,17.70
2018,04,16,12,53,16.10
2018,04,16,12,54,16.10
2018,04,16,12,55,14.50
2018,04,16,12,56,14.50
2018,04,16,12,57,16.10
2018,04,16,12,58,16.10
2018,04,16,12,59,12.90
2018,04,16,13,00,14.50
2018,04,16,13,01,17.70
2018,04,16,13,02,14.50
2018,04,16,13,03,14.50
2018,04,16,13,04,14.50
2018,04,16,13,05,14.50
2018,04,16,13,06,14.50
2018,04,16,13,07,14.50
2018,04,16,13,08,14.50
2018,04,16,13,09,12.90
2018,04,16,13,10,14.50
2018,04,16,13,11,14.50
2018,04,16,13,12,12.90
2018,04,16,13,13,14.50
2018,04,16,13,14,12.90
2018,04,16,13,15,14.50
2018,04,16,13,16,14.50
2018,04,16,13,17,17.70
2018,04,16,13,18,16.10
2018,04,16,13,19,11.30
2018,04,16,13,20,12.90
2018,04,16,13,21,11.30
2018,04,16,13,22,11.30
2018,04,16,13,23,11.30
2018,04,16,13,24,12.90
2018,04,16,13,25,11.30
2018,04,16,13,26,11.30
2018,04,16,13,27,9.60
2018,04,16,13,28,9.60
2018,04,16,13,29,11.30
2018,04,16,13,30,11.30
2018,04,16,13,31,11.30
2018,04,16,13,32,11.30
2018,04,16,13,33,11.30
2018,04,16,13,34,11.30
2018,04,16,13,35,14.50
2018,04,16,13,36,12.90
2018,04,16,13,37,14.50
2018,04,16,13,38,12.90
2018,04,16,13,39,12.90
2018,04,16,13,40,12.90
2018,04,16,13,41,14.50
2018,04,16,13,42,16.10
2018,04,16,13,43,16.10
2018,04,16,13,44,16.10
2018,04,16,13,45,16.10
2018,04,16,13,46,14.50
2018,04,16,13,47,12.90
2018,04,16,13,48,9.60
2018,04,16,13,49,9.60
2018,04,16,13,50,9.60
2018,04,16,13,51,11.30
2018,04,16,13,52,11.30
2018,04,16,13,53,11.30
2018,04,16,13,54,12.90
2018,04,16,13,55,11.30
2018,04,16,13,56,12.90
2018,04,16,13,57,12.90
2018,04,16,13,58,12.90
2018,04,16,13,59,12.90
2018,04,16,14,00,11.30
2018,04,16,14,01,12.90
2018,04,16,14,02,11.30
2018,04,16,14,03,11.30
2018,04,16,14,04,9.60
2018,04,16,14,05,9.60
2018,04,16,14,06,6.40
2018,04,16,14,07,9.60
2018,04,16,14,08,9.60
2018,04,16,14,09,9.60
2018,04,16,14,10,12.90
2018,04,16,14,11,11.30
2018,04,16,14,12,12.90
2018,04,16,14,13,12.90
2018,04,16,14,14,12.90
2018,04,16,14,15,14.50
2018,04,16,14,16,11.30
2018,04,16,14,17,11.30
2018,04,16,14,18,11.30
2018,04,16,14,19,11.30
2018,04,16,14,20,11.30
2018,04,16,14,21,12.90
2018,04,16,14,22,11.30
2018,04,16,14,23,11.30
2018,04,16,14,24,11.30
2018,04,16,14,25,12.90
2018,04,16,14,26,12.90
2018,04,16,14,27,12.90
2018,04,16,14,28,12.90
2018,04,16,14,29,11.30
2018,04,16,14,30,9.60
2018,04,16,14,31,9.60
2018,04,16,14,32,9.60
2018,04,16,14,33,8.10
2018,04,16,14,34,9.60
2018,04,16,14,35,8.10
2018,04,16,14,36,6.40
2018,04,16,14,37,6.40
2018,04,16,14,38,8.10
2018,04,16,14,39,8.10
2018,04,16,14,40,8.10
2018,04,16,14,41,4.80
2018,04,16,14,42,4.80
2018,04,16,14,43,4.80
2018,04,16,14,44,6.40
2018,04,16,14,45,6.40
2018,04,16,14,46,6.40
2018,04,16,14,47,6.40
2018,04,16,14,48,6.40
2018,04,16,14,49,6.40
2018,04,16,14,50,6.40
2018,04,16,14,51,4.80
2018,04,16,14,52,6.40
2018,04,16,14,53,6.40
2018,04,16,14,54,6.40
2018,04,16,14,55,6.40
2018,04,16,14,56,6.40
2018,04,16,14,57,9.60
2018,04,16,14,58,11.30
2018,04,16,14,59,12.90
2018,04,16,15,00,11.30
2018,04,16,15,01,8.10
2018,04,16,15,02,8.10
2018,04,16,15,03,9.60
2018,04,16,15,04,9.60
2018,04,16,15,05,9.60
2018,04,16,15,06,9.60
2018,04,16,15,07,8.10
2018,04,16,15,08,6.40
2018,04,16,15,09,11.30
2018,04,16,15,10,11.30
2018,04,16,15,11,12.90
2018,04,16,15,12,17.70
2018,04,16,15,13,8.10
2018,04,16,15,14,8.10
2018,04,16,15,15,8.10
2018,04,16,15,16,9.60
2018,04,16,15,17,11.30
2018,04,16,15,18,9.60
2018,04,16,15,19,11.30
2018,04,16,15,20,6.40
2018,04,16,15,21,6.40
2018,04,16,15,22,6.40
2018,04,16,15,23,4.80
2018,04,16,15,24,6.40
2018,04,16,15,25,6.40
2018,04,16,15,26,6.40
2018,04,16,15,27,4.80
2018,04,16,15,28,6.40
2018,04,16,15,29,3.20
2018,04,16,15,30,4.80
2018,04,16,15,31,4.80
2018,04,16,15,32,4.80
2018,04,16,15,33,6.40
2018,04,16,15,34,8.10
2018,04,16,15,35,4.80
2018,04,16,15,36,6.40
2018,04,16,15,37,6.40
2018,04,16,15,38,6.40
2018,04,16,15,39,4.80
2018,04,16,15,40,4.80
2018,04,16,15,41,6.40
2018,04,16,15,42,6.40
2018,04,16,15,43,4.80
2018,04,16,15,44,6.40
2018,04,16,15,45,4.80
2018,04,16,15,46,3.20
2018,04,16,15,47,1.60
2018,04,16,15,48,3.20
2018,04,16,15,49,3.20
2018,04,16,15,50,3.20
2018,04,16,15,51,4.80
2018,04,16,15,52,3.20
2018,04,16,15,53,3.20
2018,04,16,15,54,3.20
2018,04,16,15,55,4.80
2018,04,16,15,56,3.20
2018,04,16,15,57,3.20
2018,04,16,15,58,4.80
2018,04,16,15,59,3.20
2018,04,16,16,00,3.20
2018,04,16,16,01,3.20
2018,04,16,16,02,4.80
2018,04,16,16,03,4.80
2018,04,16,16,04,4.80
2018,04,16,16,05,4.80
2018,04,16,16,06,4.80
2018,04,16,16,07,6.40
2018,04,16,16,08,6.40
2018,04,16,16,09,3.20
2018,04,16,16,10,4.80
2018,04,16,16,11,4.80
2018,04,16,16,12,4.80
2018,04,16,16,13,6.40
2018,04,16,16,14,6.40
2018,04,16,16,15,8.10
2018,04,16,16,16,6.40
2018,04,16,16,17,6.40
2018,04,16,16,18,6.40
2018,04,16,16,19,8.10
2018,04,16,16,20,8.10
2018,04,16,16,21,8.10
2018,04,16,16,22,11.30
2018,04,16,16,23,11.30
2018,04,16,16,24,8.10
2018,04,16,16,25,8.10
2018,04,16,16,26,11.30
2018,04,16,16,27,11.30
2018,04,16,16,28,11.30
2018,04,16,16,29,8.10
2018,04,16,16,30,8.10
2018,04,16,16,31,8.10
2018,04,16,16,32,6.40
2018,04,16,16,33,4.80
2018,04,16,16,34,3.20
2018,04,16,16,35,4.80
2018,04,16,16,36,3.20
2018,04,16,16,37,4.80
2018,04,16,16,38,8.10
2018,04,16,16,39,8.10
2018,04,16,16,40,6.40
2018,04,16,16,41,6.40
2018,04,16,16,42,8.10
2018,04,16,16,43,6.40
2018,04,16,16,44,8.10
2018,04,16,16,45,6.40
2018,04,16,16,46,6.40
2018,04,16,16,47,11.30
2018,04,16,16,48,14.50
2018,04,16,16,49,11.30
2018,04,16,16,50,12.90
2018,04,16,16,51,14.50
2018,04,16,16,52,14.50
2018,04,16,16,53,14.50
2018,04,16,16,54,12.90
2018,04,16,16,55,11.30
2018,04,16,16,56,11.30
2018,04,16,16,57,12.90
2018,04,16,16,58,12.90
2018,04,16,16,59,11.30
2018,04,16,17,00,9.60
2018,04,16,17,01,9.60
2018,04,16,17,02,11.30
2018,04,16,17,03,11.30
2018,04,16,17,04,11.30
2018,04,16,17,05,11.30
2018,04,16,17,06,9.60
2018,04,16,17,07,9.60
2018,04,16,17,08,8.10
2018,04,16,17,09,9.60
2018,04,16,17,10,11.30
2018,04,16,17,11,11.30
2018,04,16,17,12,11.30
2018,04,16,17,13,9.60
2018,04,16,17,14,11.30
2018,04,16,17,15,11.30
2018,04,16,17,16,14.50
2018,04,16,17,17,16.10
2018,04,16,17,18,17.70
2018,04,16,17,19,16.10
2018,04,16,17,20,12.90
2018,04,16,17,21,17.70
2018,04,16,17,22,19.30
2018,04,16,17,23,14.50
2018,04,16,17,24,14.50
2018,04,16,17,25,17.70